Location: *
(47.6556°N, 2.8667°W)
Time: 20:59:45
(UTC+00:00)

Daily predictions for brighter satellites

Satellite Brightness Start Highest point End
(mag) Time Altitude Azimuth Time Altitude Azimuth Time Altitude Azimuth
NOSS 3-1 (A) 4.5 20:29:09 10° SSE 20:33:11 21° ESE 20:37:35 10° ENE
ARGOS 3.5 20:28:05 10° S 20:33:29 69° WSW 20:38:53 10° NNW
Cosmos 2228 Rocket 3.8 20:29:28 10° N 20:33:48 40° ENE 20:38:05 10° SE
Cosmos 2322 Rocket 2.4 20:29:49 10° SSW 20:35:32 82° WNW 20:41:17 10° NNE
TIMED 4.5 20:32:00 10° SSW 20:36:20 70° ESE 20:40:41 10° NNE
SPOT 5 4.4 20:32:34 10° ESE 20:36:20 22° ENE 20:39:58 10° NNE
SL-24 R/B 4.4 20:32:23 10° NNE 20:36:52 80° ESE 20:42:02 10° S
Cosmos 1238 Rocket 4.1 20:30:49 10° S 20:37:29 81° E 20:43:51 10° N
CZ-2C R/B 3.1 20:36:22 10° SSE 20:41:39 80° ENE 20:46:41 10° NNW
ERS-1 Rocket 3.9 20:38:08 10° SE 20:42:36 33° ENE 20:47:05 10° N
Cosmos 407 Rocket 3.9 20:38:14 10° S 20:43:13 43° ESE 20:48:16 10° NE
Cosmos 2278 Rocket 3.9 20:38:59 10° N 20:43:24 22° NE 20:47:47 10° E
SL-16 R/B 2.8 20:38:49 10° SW 20:44:26 64° WNW 20:50:06 10° NNE
Resurs 01 Rocket 2.1 20:41:28 10° S 20:45:52 63° WSW 20:50:16 10° NNW
Cosmos 1844 Rocket 2.9 20:41:32 10° NNW 20:47:13 65° ENE 20:52:51 10° SE
Cosmos 1500 Rocket 4.0 20:45:05 10° SSE 20:49:21 45° E 20:53:38 10° NNE
H-2A R/B 3.1 20:45:48 10° S 20:51:01 48° W 20:56:11 10° NNW
Cosmos 1356 Rocket 3.8 20:47:10 10° N 20:51:24 52° ENE 20:55:37 10° SSE
Cosmos 1190 Rocket 4.3 20:48:21 10° S 20:53:17 47° ESE 20:58:18 10° NNE
Cosmos 2263 Rocket 3.9 20:48:31 10° NW 20:53:20 29° WSW 20:58:09 10° SSW
Cosmos 2333 Rocket 3.3 20:48:52 10° SSE 20:53:25 25° ESE 20:57:59 10° NE
USA 215 3.2 20:47:33 10° NE 20:54:07 74° SE 21:00:41 10° SW
EO 1 Del DPAF 4.1 20:51:05 10° NNE 20:54:30 30° E 20:57:53 10° SSE
MetOp-B 4.2 20:49:29 10° SSE 20:54:50 79° ENE 21:00:13 10° NNW
Lacrosse 5 3.5 20:55:57 10° NW 21:00:28 31° NNE 21:04:59 10° ENE
Cosmos 2322 3.9 20:55:30 10° S 21:00:58 52° ESE 21:06:27 10° NE
ISS -3.2 20:57:56 10° W 21:01:14 60° NNW 21:04:33 10° ENE
Cosmos 44 Rocket 4.2 20:57:14 10° SW 21:02:16 56° NW 21:07:14 10° NNE
SL-8 R/B 4.1 20:58:13 10° WNW 21:02:51 51° SSW 21:06:56 13° SE
BREEZE-M DEB (TANK) 3.8 21:02:44 10° SSW 21:06:18 27° SE 21:10:39 10° ENE
Meteor 2-3 Rocket 4.2 21:01:11 10° SSE 21:06:40 45° E 21:12:11 10° NNE
Terra 3.1 21:03:13 11° ESE 21:06:59 28° ENE 21:11:00 10° N
Thor Agena Rocket 4.2 21:04:19 10° NNE 21:08:56 35° E 21:13:24 11° SSE
Cosmos 1892 3.8 21:05:50 10° SSW 21:09:32 47° WNW 21:13:15 10° N
Cosmos 1408 2.5 21:06:18 10° S 21:10:00 82° E 21:13:46 10° N
ATLAS CENTAUR R/B 3.1 21:05:59 10° NNW 21:10:12 29° NE 21:14:11 10° E
USA 81 4.3 21:07:38 10° N 21:12:51 56° E 21:17:31 13° SSE
Meteor 1-26 Rocket 4.3 21:08:37 10° N 21:14:12 64° ENE 21:19:05 13° SSE
Cosmos 1933 3.3 21:11:07 10° N 21:15:12 88° ENE 21:18:59 12° S
Cosmos 1607 3.9 21:09:10 10° NW 21:15:22 85° NE 21:20:38 15° SE
Nadezhda 4 Rocket 4.2 21:10:09 10° NNW 21:16:27 75° W 21:22:38 10° S
Cosmos 1743 Rocket 3.6 21:13:41 10° SSW 21:18:03 81° W 21:22:25 10° N
Cosmos 1707 Rocket 4.5 21:16:40 10° N 21:20:46 35° ENE 21:23:42 17° SE
Spot 2 Rocket 4.3 21:18:11 10° S 21:23:08 51° W 21:28:09 10° NNW
DMSP B5D2-2 4.5 21:20:36 10° N 21:25:47 67° WNW 21:30:57 10° SSW
Cosmos 2237 4.4 21:21:45 10° SSW 21:27:27 76° WNW 21:33:10 10° NNE
Gbstr 26 Del rocket 3.8 21:24:26 10° W 21:28:15 45° N 21:31:51 10° ENE
USA 267 3.3 21:23:38 15° SE 21:29:20 81° SW 21:35:56 10° NW
Cosmos 1092 Rocket 4.1 21:32:45 10° NNW 21:39:00 77° W 21:44:49 12° S
NOSS 3-1 (C) 3.3 21:34:16 10° SW 21:39:52 85° SE 21:46:24 10° NE
BREEZE-M DEB (TANK) 2.0 21:37:54 10° W 21:40:01 62° N 21:44:07 10° E
Cosmos 1844 3.9 21:34:34 10° NNW 21:40:09 66° WSW 21:44:34 17° SSE
SPOT 1/Viking Rocket 3.6 21:37:24 16° SSE 21:41:39 83° WSW 21:46:54 10° NNW
Cosmos 1805 Rocket 3.5 21:38:44 15° S 21:42:17 68° E 21:46:37 10° NNE
Cosmos 1023 Rocket 4.5 21:39:06 10° SSW 21:44:17 89° WNW 21:49:33 10° NNE
NOSS 8 (A) 4.1 21:41:47 10° SW 21:45:01 90° NNW 21:48:09 10° NE
COSMOS 2428 2.7 21:39:48 10° SSW 21:45:28 66° ESE 21:51:10 10° NNE
Cosmos 2360 Rocket 3.2 21:40:55 10° SW 21:46:23 49° NW 21:51:53 10° NNE
Lacrosse 5 rocket 2.5 21:43:19 10° NW 21:47:46 44° NNE 21:51:37 13° E
Cosmos 2084 Rocket 4.2 21:44:09 10° NW 21:48:17 42° WSW 21:50:49 20° S
CZ-2C R/B 2.8 21:46:05 10° N 21:51:18 73° WNW 21:56:26 10° SSW
Cosmos 2237 Rocket 3.0 21:49:18 21° SE 21:51:47 30° ESE 21:56:37 10° NE
Cosmos 1606 3.4 21:50:05 10° NNW 21:53:44 49° W 21:56:24 17° SSW
USA 245 4.4 21:55:25 13° SW 21:56:36 18° W 21:58:21 10° NW
Cosmos 1818 4.0 21:51:42 10° NW 21:57:02 54° WSW 22:00:27 21° S
CARTOSAT-1 3.6 21:56:25 22° S 21:59:07 76° WSW 22:03:28 10° NNW
Cosmos 1782 2.7 21:56:50 10° N 22:00:52 90° NNE 22:02:57 28° S
SL-4 R/B 2.6 21:56:46 10° WSW 22:01:38 73° NNW 22:06:25 10° ENE
Cosmos 1633 Rocket 3.3 22:00:00 27° SSE 22:02:00 49° E 22:06:13 10° NNE
Cosmos 1825 3.8 21:59:00 10° SW 22:02:25 32° WNW 22:05:52 10° N
Cosmos 1666 Rocket 3.6 22:00:55 25° S 22:03:27 63° E 22:07:53 10° NNE
Cosmos 1634 Rocket 4.1 21:57:54 10° SSW 22:04:09 76° W 22:10:23 10° N
Cosmos 676 Rocket 4.2 21:59:44 10° SSW 22:04:57 74° WNW 22:10:15 10° NNE
Meteor 1-10 Rocket 4.3 22:00:24 10° N 22:06:04 65° ENE 22:09:23 26° SSE
Cosmos 2026 Rocket 4.2 22:01:04 10° NNW 22:07:08 68° W 22:11:55 17° S
Meteor 2-6 Rocket 4.2 22:02:33 10° N 22:08:02 73° ENE 22:11:15 26° SSE
Cosmos 1400 Rocket 4.2 22:06:46 10° N 22:10:23 28° ENE 22:11:49 23° ESE
ATLAS 5 CENTAUR R/B 3.9 22:06:50 10° NNW 22:11:34 28° NNE 22:16:52 10° E
Cosmos 1140 Rocket 4.2 22:06:47 10° SW 22:11:52 56° WNW 22:17:01 10° NNE
Cosmos 2219 Rocket 2.3 22:08:03 10° SSW 22:13:44 83° WNW 22:19:27 10° NNE
Cosmos 1862 3.8 22:12:45 34° SE 22:13:53 44° E 22:17:42 10° NNE
Sich 1 3.0 22:11:14 21° SSW 22:14:03 79° W 22:18:22 10° N
SPOT 5 3.4 22:10:45 19° S 22:14:07 53° W 22:18:47 10° NNW
Cosmos 1954 Rocket 4.4 22:11:23 10° SSW 22:16:34 65° WNW 22:21:51 10° NNE
DELTA 2 R/B (1) 4.2 22:11:45 10° WSW 22:16:47 35° S 22:18:25 29° SSE
Cosmos 1741 Rocket 4.1 22:14:45 25° S 22:17:38 57° ESE 22:22:45 10° NNE
Cosmos 1862 Rocket 3.8 22:14:22 10° N 22:18:39 56° ENE 22:20:17 34° SE
USA 229 DEB 4.4 22:13:40 10° WSW 22:20:10 55° NW 22:27:02 10° NE
USA 229 4.4 22:13:46 10° WSW 22:20:17 55° NW 22:27:08 10° NE
ERS-1 Rocket 4.2 22:17:32 14° SSW 22:21:20 36° W 22:26:00 10° NNW
NOSS 3-1 (A) 3.5 22:17:30 10° SW 22:23:09 78° NW 22:29:46 10° NE
Cosmos 1867 3.5 22:17:45 10° SSW 22:23:12 76° SE 22:28:42 10° NE
Cosmos 1470 Rocket 4.0 22:22:16 35° SE 22:23:35 46° E 22:27:48 10° NNE
Cosmos 1850 Rocket 4.0 22:22:35 23° S 22:25:54 70° ESE 22:31:15 10° NNE
Cosmos 2278 Rocket 2.2 22:22:29 10° NNW 22:28:11 81° WSW 22:31:01 31° SSE
SL-24 R/B - RUBIN 2 4.4 22:24:23 10° NW 22:30:08 79° NE 22:33:36 28° SE
Cosmos 1655 Rocket 4.0 22:25:16 10° N 22:31:33 83° W 22:35:09 27° S
GP-B 3.9 22:29:32 10° NNE 22:33:40 36° E 22:34:44 31° ESE
Helios 1A 3.4 22:32:32 35° ESE 22:33:50 50° ENE 22:37:52 10° N
NOSS 2-3 (E) 3.7 22:29:46 12° SW 22:33:51 84° SE 22:39:12 10° NE
NOSS 2-3 (D) 3.7 22:33:08 15° SW 22:36:53 83° SE 22:42:11 10° NE
USA 215 4.1 22:30:42 10° NE 22:37:00 52° NNW 22:43:17 10° W
Cosmos 2333 Rocket 2.8 22:31:40 10° SW 22:37:18 58° WNW 22:42:55 10° NNE
ISS -2.4 22:35:06 10° WNW 22:38:17 40° N 22:41:12 12° ENE
Cosmos 2180 Rocket 4.5 22:34:25 22° SSW 22:38:34 83° W 22:44:45 10° N
Cosmos 841 Rocket 3.9 22:36:23 10° NNW 22:41:27 53° ENE 22:43:38 31° ESE
Cosmos 1633 2.4 22:42:09 59° S 22:42:46 82° E 22:46:23 10° N
Lacrosse 5 2.0 22:39:04 10° NW 22:44:09 70° NE 22:46:50 28° ESE
Terra 2.8 22:42:06 23° SSW 22:44:34 40° W 22:49:04 10° NNW
Cosmos 1763 Rocket 3.4 22:39:57 10° NNW 22:45:11 90° ENE 22:47:17 38° SSE
ATLAS CENTAUR R/B 1.9 22:44:53 10° NW 22:49:28 53° WSW 22:50:36 41° SSW
Cosmos 2369 Rocket 4.2 22:46:10 10° N 22:50:32 22° NE 22:54:51 10° E
Meteor 1-27 Rocket 3.8 22:46:06 10° NNW 22:52:03 88° W 22:54:45 35° S
ASTEX 1 4.2 22:49:14 10° N 22:54:03 49° WNW 22:57:11 21° SW
Cosmos 468 Rocket 4.3 22:49:22 10° NNW 22:54:34 59° WSW 22:56:38 35° S
Lacrosse 4 Rocket 2.0 22:58:29 42° ESE 22:58:38 42° ESE 23:02:50 10° NE
Cosmos 2266 Rocket 4.0 22:52:15 10° N 22:58:39 81° W 23:01:39 33° S
Helios 1B rocket 3.3 22:55:27 10° NNE 22:59:13 33° E 22:59:21 32° ESE
MOS 1 Rocket 4.2 22:56:32 10° N 23:00:52 45° WNW 23:04:04 18° SW
Mayak -1.3 22:57:22 10° NNE 23:01:39 79° ESE 23:02:37 52° S
Cosmos 2285 Rocket 4.2 22:59:41 35° SSE 23:02:02 53° ESE 23:08:08 10° NNE
Nimbus 7 Rocket 4.4 22:59:36 10° NNE 23:05:35 75° ESE 23:08:16 35° S
COSMOS 2455 2.8 23:05:32 33° S 23:08:17 67° ESE 23:14:17 10° NE
Spot 4 3.9 23:09:39 44° S 23:11:05 72° WSW 23:15:52 10° NNW
USA 238 DEB 4.4 23:04:47 10° NW 23:11:45 53° NE 23:17:39 16° ESE
USA 238 4.4 23:04:53 10° NW 23:11:50 52° NE 23:17:47 15° ESE
Cosmos 1812 2.8 23:08:14 10° NNW 23:12:06 68° W 23:12:37 59° SW
USA 267 4.4 23:10:58 22° SSW 23:12:59 26° SW 23:18:18 10° WNW
NOSS 0 Rocket 4.3 23:07:24 10° SW 23:13:26 62° WNW 23:19:33 10° NNE
ATLAS 2AS CENTAUR R/B 4.1 23:13:44 23° SE 23:15:21 24° ESE 23:21:26 10° ENE
Gbstr 26 Del rocket 3.0 23:11:40 10° WNW 23:15:24 63° NNE 23:16:44 36° E
SL-16 R/B 2.3 23:19:43 43° SSE 23:21:18 59° ESE 23:26:53 10° NE
Lacrosse 5 rocket 1.8 23:22:40 10° WNW 23:27:05 48° SW 23:27:14 47° SW
Cosmos 1980 4.4 23:24:31 14° SW 23:29:18 51° NW 23:34:52 10° NNE
Nadezhda 2 Rocket 4.4 23:24:01 10° N 23:30:16 89° E 23:32:35 41° S
Okean 1-7 2.9 23:27:29 10° N 23:31:50 85° W 23:32:28 64° S
Cosmos 1703 Rocket 3.7 23:28:59 10° NNW 23:33:26 67° W 23:34:16 54° SSW
Cosmos 2237 Rocket 3.0 23:31:04 15° SW 23:35:36 49° NW 23:41:05 10° NNE
CZ-4 R/B 4.3 23:34:03 10° NNE 23:38:33 43° E 23:39:09 41° ESE
ARGOS Delta rocket 4.0 23:38:58 45° SW 23:39:52 53° W 23:44:26 10° NNW
SL-4 R/B 3.2 23:37:05 10° WNW 23:41:49 52° N 23:46:22 10° E
Cosmos 1814 Rocket 4.5 23:41:08 10° NNW 23:46:01 45° WSW 23:47:05 39° SW
Cosmos 1400 Rocket 4.3 23:43:18 10° NNW 23:46:48 27° W 23:47:26 26° WSW
Cosmos 1745 Rocket 4.3 23:41:26 10° N 23:47:38 57° ENE 23:50:06 35° SE
Cosmos 1315 Rocket 2.9 23:45:10 10° NNW 23:49:06 60° W 23:49:16 59° WSW
SL-08 R/B 4.5 23:43:28 10° N 23:49:41 75° E 23:51:59 41° SSE
Cosmos 540 Rocket 3.7 23:45:31 10° NNW 23:50:31 55° WSW 23:51:33 46° SSW
Cosmos 1437 3.6 23:52:21 44° NW 23:52:21 44° NW 23:54:51 10° N
